Content
SEND FEEDBACK

Daily
Averages
Monthly
Summary
United States of America

FLEMING, GEORGIA


Home > North America > United States > Georgia
Elevation: 2 feet     Latitude: 31 53N     Longitude: 081 24W

WEATHER
 
SELECT A DAY
Number of Records: 168,781;   Date Range: 1/3/95 - 7/23/14
 
SHARE

PRINT THIS DATA

[ ← Previous Day ]
WEATHER ALMANAC - FEBRUARY 13, 2013
[ Next Day → ]
[ °C ]   °F
Weather ElementAverageHighLow
Temperature62.3 °F79 °F (1:58 pm)51.6 °F (10:58 pm)
Dewpoint59.6 °F67.3 °F (9:58 am)44.1 °F (4:58 pm)
Humidity92.8 %100 % (12:08 am)40 % (3:58 pm)
Barometer29.79 in29.93 in (9:48 pm)29.73 in (3:48 am)
Wind Speed6.2 mph18.4 mph (1:06 am)
Wind Gust27.6 mph (3:58 pm)
Weather ElementAverage
Visibility7.5 mi
Wind DirectionSSW (203.9 °)

Weather ElementTotal
Precipitation1.55 in
Cooling Degree Days0.3 (Base 65)
Growing Degree Days15.3 (Base 50)
Averaged from 95 records on February 13, 2013
WEATHER CONDITIONS BREAKOUT
WIND DIRECTION BREAKOUT
WEATHER BY HOUR - FEBRUARY 13, 2013
[ °C ]   °F
Local TimeTemperatureDewpointHumidityBarometerVisibilityWind DirectionWind SpeedGust SpeedPrecipitationEventsConditions
12:08 AM57.2 °F57.2 °F100 %29.81 in4.0 miESE (110°)8.1 mphRainHeavy Rain
12:13 AM59.0 °F59.0 °F100 %29.81 in4.0 miVariable5.8 mphRainHeavy Rain
12:15 AM59.0 °F59.0 °F100 %29.82 in4.0 miVariable3.5 mphRain-ThunderstormLight Thunderstorms and Rain
12:20 AM60.8 °F60.8 °F100 %29.81 in10.0 miVariable2.3 mphRain-ThunderstormLight Thunderstorms and Rain
12:30 AM60.8 °F60.8 °F100 %29.81 in9.0 miESE (110°)4.6 mphRainLight Rain
12:35 AM59.0 °F59.0 °F100 %29.80 in5.0 miSE (130°)4.6 mphRainHeavy Rain
12:40 AM59.0 °F59.0 °F100 %29.79 in3.0 miSSE (150°)5.8 mphRainHeavy Rain
12:45 AM60.8 °F60.8 °F100 %29.78 in1.5 miSE (130°)9.2 mphRainHeavy Rain
12:50 AM60.8 °F60.8 °F100 %29.77 in1.2 miESE (110°)6.9 mphRainHeavy Rain
12:58 AM61.7 °F61.7 °F100 %29.74 in1.2 miENE (60°)5.8 mph0.59 inRainHeavy Rain
1:03 AM62.6 °F62.6 °F100 %29.77 in2.5 miEast (100°)11.5 mphRainRain
1:04 AM62.6 °F62.6 °F100 %29.78 in2.5 miNorth (10°)13.8 mphRainRain
1:05 AM62.6 °F62.6 °F100 %29.78 in2.5 miNW (310°)15.0 mph24.2 mphRainRain
1:06 AM62.6 °F62.6 °F100 %29.81 in3.0 miWNW (290°)18.4 mph24.2 mphRainRain
1:11 AM62.6 °F62.6 °F100 %29.79 in2.5 miWSW (250°)9.2 mph24.2 mphRainHeavy Rain
1:16 AM62.6 °F62.6 °F100 %29.81 in4.0 miSW (220°)8.1 mph24.2 mphRainRain
1:21 AM62.6 °F62.6 °F100 %29.79 in8.0 miWSW (240°)6.9 mph17.3 mphRainLight Rain
1:26 AM64.4 °F64.4 °F100 %29.79 in10.0 miSW (230°)9.2 mph17.3 mphRainLight Rain
1:41 AM64.4 °F64.4 °F100 %29.78 in9.0 miVariable2.3 mphRainLight Rain
1:46 AM64.4 °F64.4 °F100 %29.78 in10.0 miSouth (190°)2.3 mphRainLight Rain
1:49 AM64.4 °F64.4 °F100 %29.78 in9.0 miSouth (190°)3.5 mphRain-ThunderstormLight Thunderstorms and Rain
1:54 AM62.6 °F62.6 °F100 %29.77 in3.0 miSouth (190°)2.3 mphRain-ThunderstormHeavy Thunderstorms and Rain
1:58 AM62.6 °F62.6 °F100 %29.78 in2.0 miVariable1.2 mph0.21 inRain-ThunderstormHeavy Thunderstorms and Rain
2:03 AM62.6 °F62.6 °F100 %29.77 in1.0 miSW (230°)1.2 mphRain-ThunderstormHeavy Thunderstorms and Rain
2:08 AM62.6 °F62.6 °F100 %29.77 in0.5 miSouth (190°)4.6 mphFog-Rain-ThunderstormHeavy Thunderstorms and Rain
2:18 AM62.6 °F62.6 °F100 %29.77 in2.5 miSSW (210°)4.6 mphRain-ThunderstormThunderstorms and Rain
2:21 AM62.6 °F62.6 °F100 %29.77 in4.0 miSSW (200°)5.8 mphRainRain
2:31 AM62.6 °F62.6 °F100 %29.76 in4.0 miVariable1.2 mphRainLight Rain
2:36 AM62.6 °F62.6 °F100 %29.77 in6.0 miSSW (200°)4.6 mphRainLight Rain
2:48 AM62.6 °F62.6 °F100 %29.76 in5.0 miSouth (170°)3.5 mphRain-ThunderstormThunderstorms and Rain
2:58 AM63.3 °F63.3 °F100 %29.77 in6.0 miWest (270°)4.6 mph0.39 inRain-ThunderstormLight Thunderstorms and Rain
3:03 AM62.6 °F62.6 °F100 %29.75 in10.0 miVariable1.2 mphRain-ThunderstormLight Thunderstorms and Rain
3:10 AM62.6 °F62.6 °F100 %29.76 in10.0 miCalm (360°)RainLight Rain
3:32 AM62.6 °F62.6 °F100 %29.75 in10.0 miNNW (330°)3.5 mphOvercast
3:42 AM62.6 °F62.6 °F100 %29.74 in10.0 miNNW (330°)3.5 mphOvercast
3:48 AM62.6 °F62.6 °F100 %29.73 in10.0 miESE (120°)5.8 mphRain-ThunderstormLight Thunderstorms and Rain
3:53 AM62.6 °F62.6 °F100 %29.74 in5.0 miCalm (350°)Rain-ThunderstormLight Thunderstorms and Rain
3:58 AM62.8 °F62.8 °F100 %29.74 in3.0 miVariable1.2 mph0.05 inRain-ThunderstormHeavy Thunderstorms and Rain
4:03 AM62.6 °F62.6 °F100 %29.74 in2.5 miVariable4.6 mphRain-ThunderstormHeavy Thunderstorms and Rain
4:08 AM62.6 °F62.6 °F100 %29.75 in4.0 miNW (320°)6.9 mphRain-ThunderstormLight Thunderstorms and Rain
4:13 AM62.6 °F62.6 °F100 %29.75 in5.0 miWNW (290°)6.9 mphRain-ThunderstormThunderstorms and Rain
4:23 AM62.6 °F62.6 °F100 %29.76 in3.0 miWNW (290°)10.4 mphRain-ThunderstormHeavy Thunderstorms and Rain
4:28 AM62.6 °F62.6 °F100 %29.76 in2.0 miNNW (340°)9.2 mphRain-ThunderstormHeavy Thunderstorms and Rain
4:33 AM62.6 °F62.6 °F100 %29.76 in3.0 miNNW (330°)6.9 mphRain-ThunderstormHeavy Thunderstorms and Rain
4:37 AM62.6 °F62.6 °F100 %29.76 in7.0 miNW (310°)5.8 mphRainRain
4:42 AM62.6 °F62.6 °F100 %29.75 in8.0 miNW (320°)2.3 mphRainLight Rain
4:47 AM62.6 °F62.6 °F100 %29.75 in10.0 miCalm (360°)RainLight Rain
4:50 AM62.6 °F62.6 °F100 %29.76 in10.0 miCalmOvercast
4:55 AM62.6 °F62.6 °F100 %29.76 in10.0 miWSW (250°)2.3 mphOvercast
4:58 AM62.6 °F62.6 °F100 %29.77 in10.0 miWSW (240°)2.3 mph0.18 inOvercast
5:29 AM60.8 °F60.8 °F100 %29.76 in10.0 miVariable1.2 mphRainLight Rain
5:34 AM60.8 °F60.8 °F100 %29.75 in6.0 miVariable1.2 mphRain-ThunderstormLight Rain
5:44 AM62.6 °F62.6 °F100 %29.76 in10.0 miSouth (170°)3.5 mphRain-ThunderstormLight Rain
5:58 AM62.1 °F62.1 °F100 %29.77 in10.0 miNW (320°)5.8 mph0.03 inRainLight Rain
6:08 AM60.8 °F60.8 °F100 %29.76 in8.0 miNorth (360°)2.3 mphRainLight Rain
6:13 AM60.8 °F60.8 °F100 %29.76 in8.0 miCalm (10°)RainLight Rain
6:18 AM60.8 °F60.8 °F100 %29.77 in10.0 miNNW (330°)2.3 mphRainLight Rain
6:33 AM60.8 °F60.8 °F100 %29.76 in10.0 miCalm (360°)Light Drizzle
6:37 AM60.8 °F60.8 °F100 %29.76 in10.0 miNNW (340°)1.2 mphMostly Cloudy
6:58 AM60.6 °F60.6 °F100 %29.78 in10.0 miCalm0.02 inMostly Cloudy
7:08 AM60.8 °F60.8 °F100 %29.78 in10.0 miCalm (360°)Mostly Cloudy
7:13 AM60.8 °F60.8 °F100 %29.79 in10.0 miSSW (210°)3.5 mphMostly Cloudy
7:18 AM60.8 °F60.8 °F100 %29.80 in10.0 miSW (230°)3.5 mphMostly Cloudy
7:43 AM60.8 °F60.8 °F100 %29.79 in10.0 miCalmMostly Cloudy
7:58 AM60.8 °F60.8 °F100 %29.81 in10.0 miCalmMostly Cloudy
8:08 AM60.8 °F60.8 °F100 %29.80 in10.0 miCalmOvercast
8:13 AM60.8 °F60.8 °F100 %29.80 in10.0 miCalm (360°)Overcast
8:38 AM62.6 °F62.6 °F100 %29.81 in10.0 miVariable1.2 mphRainLight Rain
8:56 AM62.6 °F62.6 °F100 %29.81 in10.0 miWSW (240°)6.9 mphOvercast
8:58 AM62.6 °F62.6 °F100 %29.82 in10.0 miWSW (240°)6.9 mph0.02 inOvercast
9:43 AM66.2 °F66.2 °F100 %29.81 in10.0 miSW (230°)6.9 mphMostly Cloudy
9:58 AM67.5 °F67.3 °F99 %29.82 in10.0 miWSW (250°)9.2 mphScattered Clouds
10:58 AM71.8 °F66.7 °F84 %29.83 in10.0 miWest (260°)16.1 mphScattered Clouds
11:03 AM71.6 °F66.2 °F83 %29.80 in10.0 miWest (260°)10.4 mph26.5 mphScattered Clouds
11:58 AM74.5 °F65.7 °F74 %29.80 in10.0 miWest (260°)8.1 mphScattered Clouds
12:58 PM78.6 °F61.3 °F55 %29.76 in10.0 miWSW (250°)17.3 mph24.2 mphPartly Cloudy
1:58 PM79.0 °F55.4 °F44 %29.74 in10.0 miWest (260°)16.1 mph26.5 mph0.01 inPartly Cloudy
2:58 PM75.7 °F50.2 °F41 %29.75 in10.0 miWest (260°)18.4 mph25.3 mphMostly Cloudy
3:58 PM71.8 °F46.0 °F40 %29.80 in10.0 miWest (260°)16.1 mph27.6 mphOvercast
4:58 PM68.9 °F44.1 °F41 %29.83 in10.0 miWest (260°)12.7 mph23.0 mphOvercast
5:55 PM66.2 °F46.4 °F49 %29.82 in10.0 miWSW (250°)10.4 mph21.9 mphOvercast
6:58 PM65.1 °F46.4 °F51 %29.84 in10.0 miWest (260°)10.4 mphOvercast
7:58 PM64.2 °F46.2 °F52 %29.86 in10.0 miWest (280°)9.2 mphOvercast
8:30 PM62.6 °F48.2 °F59 %29.88 in10.0 miWest (260°)16.1 mph24.2 mphLight Drizzle
8:50 PM60.8 °F48.2 °F63 %29.87 in10.0 miWNW (290°)13.8 mphOvercast
8:58 PM60.6 °F49.5 °F67 %29.88 in10.0 miNW (310°)15.0 mph20.7 mph0.00 inOvercast
9:08 PM57.2 °F50.0 °F77 %29.85 in10.0 miWNW (300°)10.4 mph21.9 mphRainLight Rain
9:38 PM55.4 °F51.8 °F88 %29.92 in10.0 miWNW (290°)13.8 mph21.9 mphRainRain
9:48 PM53.6 °F51.8 °F94 %29.93 in9.0 miWNW (300°)16.1 mph19.6 mphRainHeavy Rain
9:58 PM53.2 °F50.5 °F91 %29.93 in9.0 miWNW (290°)11.5 mph19.6 mph0.02 inRainLight Rain
10:23 PM51.8 °F50.0 °F94 %29.89 in10.0 miNW (320°)6.9 mphRainLight Rain
10:39 PM51.8 °F50.0 °F94 %29.90 in10.0 miWest (270°)6.9 mphMostly Cloudy
10:53 PM51.8 °F50.0 °F94 %29.93 in10.0 miWest (270°)6.9 mphRainLight Rain
10:58 PM51.6 °F49.1 °F91 %29.92 in10.0 miWest (280°)5.8 mph0.03 inRainLight Rain
11:16 PM51.8 °F48.2 °F88 %29.91 in10.0 miWNW (290°)5.8 mphScattered Clouds
Hourly data recorded from KLHW, located miles away from Fleming, Georgia







STORIES FROM OUR PARTNERS